Terminal Aerodrome Forecast
Issued by NWS Sterling, VA

Current Version | Previous Version | Graphics & Text | Print | Product List | Glossary On
Versions: 1 2 3 4 5 6 7 8 9 10 11 12 13 14 15 16 17 18 19 20 21 22 23
000
FTUS41 KLWX 301300 AAA
TAFDCA
TAF AMD
KDCA 301313Z 3013/0112 18005KT 5SM BR FEW008 OVC013
     FM301500 16005KT P6SM OVC050
     FM301900 12005KT P6SM BKN050 BKN150=

USA.gov is the U.S. government's official web portal to all federal, state and local government web resources and services.